カタログに戻る

ARIANE 5 R/B

運用中HEO
NORAD 33276·ROCKET BODY·🇫🇷 France

打ち上げ Aug 14, 2008 から Guiana Space Centre

Loading…

次のパス (今後24時間)

TLE

最新Source: Space-Track

元期: Sep 14, 2026, 12:44 UTC

1 33276U 08038C   26257.53074269  .00001937  00000-0  62068-3 0  9993
2 33276   2.4082  50.9923 7029647 263.1092  19.7974  2.59578055159092

AllMySatでARIANE 5 R/Bをリアルタイム追跡

Download on the App Store